1498179600.6,44236,21.25,74098.0,8.47,-5.81,-3.55,0,*7E
1498179601.83,44237,21.25,74100.5,8.45,-5.81,-3.55,0,*7D
1498179603.07,44238,21.25,74098.0,8.45,-5.81,-3.43,0,*75
1498179604.31,44239,21.25,74098.0,8.45,-5.81,-3.47,0,*70
1498179605.55,44240,21.25,74098.8,8.47,-5.77,-3.31,0,*74
1498179606.79,44241,21.25,74096.3,8.47,-5.77,-3.31,0,*75
1498179608.02,44242,21.25,74096.3,8.47,-5.77,-3.23,0,*75
1498179609.26,44243,21.25,74096.8,8.47,-5.77,-3.19,0,*7D
1498179610.49,44244,21.25,74094.8,8.47,-5.77,-3.23,0,*73
1498179611.73,44245,21.25,74098.3,8.47,-5.77,-3.23,0,*72
1498179612.96,44246,21.25,74092.5,8.47,-5.69,-3.19,0,*77
1498179614.2,44247,21.25,74094.8,8.47,-5.69,-3.19,0,*76
1498179615.42,44248,21.25,74094.8,8.45,-5.65,-3.19,0,*77
1498179616.64,44249,21.25,74098.5,8.47,-5.55,-2.95,0,*72
1498179617.84,44250,21.25,74096.0,8.45,-5.39,-2.95,0,*72
1498179619.03,44251,21.25,74090.0,8.45,-5.43,-2.95,0,*7E
1498179620.23,44252,21.25,74088.0,8.45,-5.39,-2.95,0,*70
1498179621.44,44253,21.25,74084.3,8.47,-5.39,-2.91,0,*77
1498179622.63,44254,21.25,74080.0,8.45,-5.35,-2.83,0,*7D
1498179623.88,44255,21.25,74088.5,8.47,-5.35,-2.71,0,*73
1498179625.12,44256,21.25,74082.5,8.49,-5.23,-2.75,0,*7D
1498179626.37,44257,21.25,74084.8,8.47,-5.35,-2.71,0,*71
1498179627.61,44258,21.25,74084.8,8.45,-5.27,-2.71,0,*7F
1498179628.89,44259,21.25,74084.0,8.47,-5.23,-2.71,0,*78
1498179630.16,44260,21.25,74088.8,8.47,-5.23,-2.59,0,*78
1498179631.43,44261,21.25,74086.5,8.47,-5.15,-2.67,0,*71
1498179632.67,44262,21.25,74086.3,8.49,-5.19,-2.63,0,*74
1498179633.94,44263,21.25,74084.8,8.47,-5.23,-2.59,0,*7B
1498179635.22,44264,21.25,74080.5,8.47,-5.23,-2.67,0,*71
1498179636.49,44265,21.25,74086.8,8.47,-5.15,-2.67,0,*75
1498179637.75,44266,21.25,74086.5,8.47,-5.11,-2.59,0,*7F
1498179639.02,44267,21.25,74088.0,8.47,-5.15,-2.59,0,*7A
1498179640.26,44268,21.25,74088.0,8.49,-5.07,-2.55,0,*74
1498179641.5,44269,21.25,74086.5,8.49,-5.11,-2.55,0,*72
1498179642.74,44270,21.25,74086.5,8.49,-5.11,-2.55,0,*7A
1498179643.98,44271,21.25,74082.0,8.49,-5.11,-2.63,0,*7E
1498179645.26,44272,21.25,74086.3,8.51,-5.07,-2.51,0,*72
1498179646.5,44273,21.25,74080.5,8.49,-5.11,-2.55,0,*79
1498179647.74,44274,21.25,74082.3,8.49,-5.11,-2.63,0,*7B
1498179648.95,44275,21.25,74084.3,8.49,-4.99,-2.55,0,*7E
1498179650.16,44276,21.25,74082.8,8.49,-4.99,-2.63,0,*78
1498179651.42,44277,21.25,74078.8,8.51,-4.93,-2.59,0,*73
1498179652.66,44278,21.25,74080.5,8.49,-5.07,-2.63,0,*70
1498179653.91,44279,21.25,74080.8,8.49,-5.07,-2.63,0,*71
1498179655.16,44280,21.25,74080.0,8.49,-5.07,-2.67,0,*73
1498179656.4,44281,21.25,74082.3,8.49,-5.07,-2.67,0,*72
1498179657.62,44282,21.25,74084.5,8.49,-4.99,-2.67,0,*77
1498179658.83,44283,21.25,74082.8,8.49,-4.99,-2.63,0,*72
1498179660.09,44284,21.25,74082.5,8.51,-4.89,-2.63,0,*7D
1498179661.33,44285,21.25,74080.3,8.49,-4.85,-2.67,0,*7D
1498179662.57,44286,21.25,74082.3,8.49,-4.93,-2.67,0,*79
1498179663.8,44287,21.25,74080.5,8.49,-4.93,-2.75,0,*7B
1498179665.06,44288,21.25,74080.8,8.51,-4.81,-2.71,0,*7A
1498179666.3,44289,21.25,74084.8,8.49,-4.81,-2.75,0,*76
1498179667.53,44290,21.25,74090.0,8.49,-4.85,-2.75,0,*7A
1498179668.77,44291,21.25,74084.0,8.49,-4.81,-2.63,0,*78
1498179670.03,44292,21.25,74086.3,8.51,-4.77,-2.71,0,*78
1498179671.24,44293,21.25,74084.0,8.49,-4.81,-2.79,0,*71
1498179672.5,44294,21.25,74080.5,8.51,-4.77,-2.75,0,*7A
1498179673.74,44295,21.25,74086.5,8.49,-4.73,-2.67,0,*75
1498179674.94,44296,21.25,74080.3,8.49,-4.69,-2.87,0,*73
1498179676.15,44297,21.25,74084.8,8.49,-4.69,-2.79,0,*73
1498179677.4,44298,21.25,74084.8,8.51,-4.69,-2.75,0,*79
1498179678.65,44299,21.25,74086.5,8.51,-4.57,-2.75,0,*75
1498179679.89,44300,21.25,74084.3,8.51,-4.57,-2.75,0,*74
1498179681.1,44301,21.25,74086.3,8.49,-4.69,-2.87,0,*7C
1498179682.33,44302,21.25,74090.0,8.51,-4.69,-2.83,0,*72
1498179683.54,44303,21.25,74088.8,8.49,-4.73,-2.87,0,*75
1498179684.74,44304,21.25,74090.8,8.49,-4.73,-2.79,0,*73
1498179685.97,44305,21.25,74090.3,8.51,-4.77,-2.83,0,*7A
1498179687.2,44306,21.25,74088.5,8.51,-4.77,-2.91,0,*7A
1498179688.43,44307,21.25,74090.8,8.51,-4.69,-2.87,0,*73
1498179689.64,44308,21.25,74090.8,8.49,-4.81,-2.95,0,*70
1498179690.85,44309,21.25,74090.8,8.49,-4.85,-3.03,0,*7B
1498179692.06,44310,21.25,74088.5,8.49,-4.85,-2.95,0,*7D
1498179693.27,44311,21.25,74092.0,8.49,-4.85,-2.95,0,*7C
1498179694.5,44312,21.25,74092.5,8.51,-4.81,-2.99,0,*7E
1498179695.74,44313,21.25,74092.5,8.51,-4.77,-2.99,0,*76
1498179696.97,44314,21.25,74090.3,8.51,-4.81,-3.03,0,*7A
1498179698.18,44315,21.25,74088.0,8.49,-4.93,-3.07,0,*75
1498179699.39,44316,21.25,74090.5,8.53,-4.81,-3.03,0,*7A
1498179700.59,44317,21.25,74088.0,8.49,-4.93,-3.07,0,*77
1498179701.82,44318,21.25,74088.3,8.51,-4.81,-3.15,0,*71
1498179703.05,44319,21.25,74086.0,8.51,-4.89,-3.15,0,*78
1498179704.26,44320,21.25,74082.5,8.49,-4.85,-3.15,0,*77
1498179705.46,44321,21.25,74084.3,8.49,-4.93,-3.19,0,*7D
1498179706.66,44322,21.25,74086.3,8.49,-4.93,-3.19,0,*7E
1498179707.9,44323,21.25,74080.5,8.51,-4.89,-3.27,0,*70
1498179709.14,44324,21.25,74080.8,8.51,-4.81,-3.27,0,*7F
1498179710.34,44325,21.25,74084.0,8.49,-4.93,-3.31,0,*73
1498179711.58,44326,21.25,74084.3,8.51,-4.89,-3.27,0,*75
1498179712.82,44327,21.25,74084.8,8.51,-4.89,-3.27,0,*74
1498179714.02,44328,21.25,74088.8,8.49,-4.93,-3.31,0,*7E
1498179715.23,44329,21.25,74088.8,8.49,-4.85,-3.27,0,*7F
1498179716.43,44330,21.25,74088.8,8.49,-4.93,-3.31,0,*77
1498179717.64,44331,21.25,74086.5,8.49,-4.93,-3.31,0,*76
1498179718.85,44332,21.25,74084.5,8.49,-4.93,-3.27,0,*72
1498179720.05,44333,21.25,74084.3,8.49,-4.85,-3.31,0,*73
1498179721.26,44334,21.25,74084.8,8.49,-4.93,-3.27,0,*74
1498179722.46,44335,21.25,74090.8,8.49,-4.93,-3.31,0,*72
1498179723.66,44336,21.25,74084.0,8.49,-4.93,-3.31,0,*71
1498179724.87,44337,21.25,74088.5,8.47,-4.99,-3.31,0,*74
1498179726.08,44338,21.25,74086.5,8.47,-4.99,-3.31,0,*7B
1498179727.28,44339,21.25,74086.3,8.47,-4.99,-3.23,0,*79
1498179728.49,44340,21.25,74084.8,8.47,-4.99,-3.31,0,*74
1498179729.69,44341,21.25,74084.5,8.47,-4.99,-3.31,0,*75
1498179730.9,44342,21.25,74084.5,8.47,-4.99,-3.31,0,*76
1498179732.14,44343,21.25,74086.3,8.47,-5.03,-3.23,0,*76
1498179733.37,44344,21.25,74088.0,8.47,-5.03,-3.23,0,*71
1498179734.6,44345,21.25,74088.0,8.47,-5.11,-3.23,0,*73
1498179735.83,44346,21.25,74088.5,8.47,-5.11,-3.19,0,*79
1498179737.07,44347,21.25,74086.5,8.47,-5.11,-3.23,0,*71
1498179738.3,44348,21.25,74086.5,8.47,-5.15,-3.19,0,*73
1498179739.54,44349,21.25,74088.0,8.47,-5.15,-3.23,0,*7B
1498179740.78,44350,21.25,74090.0,8.47,-5.15,-3.19,0,*7A
1498179742.02,44351,21.25,74090.0,8.47,-5.15,-3.19,0,*7B
1498179743.26,44352,21.25,74088.5,8.47,-5.15,-3.19,0,*78
1498179744.5,44353,21.25,74090.3,8.47,-5.23,-3.19,0,*7C
1498179745.74,44354,21.25,74090.8,8.47,-5.23,-3.19,0,*7B
1498179746.96,44355,21.25,74094.5,8.45,-5.23,-3.11,0,*70
1498179748.17,44356,21.25,74092.0,8.47,-5.35,-3.11,0,*76
1498179749.39,44357,21.25,74096.5,8.47,-5.35,-3.11,0,*77
1498179750.63,44358,21.25,74092.3,8.47,-5.27,-3.07,0,*7C
1498179751.87,44359,21.25,74096.5,8.47,-5.27,-3.07,0,*7D
1498179753.08,44360,21.25,74096.0,8.47,-5.35,-3.11,0,*73
1498179754.3,44361,21.25,74094.3,8.47,-5.35,-3.07,0,*75
1498179755.51,44362,21.25,74094.0,8.47,-5.35,-2.99,0,*70
1498179756.73,44363,21.25,74096.5,8.47,-5.35,-2.99,0,*71
1498179757.95,44364,21.25,74096.3,8.49,-5.31,-3.03,0,*7E
1498179759.15,44365,21.25,74096.8,8.45,-5.35,-2.95,0,*79
1498179760.37,44366,21.25,74094.0,8.47,-5.35,-2.99,0,*74
1498179761.58,44367,21.25,74094.0,8.47,-5.35,-2.95,0,*79
1498179762.78,44368,21.25,74094.3,8.45,-5.35,-2.95,0,*74
1498179764.0,44369,21.25,74092.3,8.47,-5.39,-2.95,0,*7B
1498179765.21,44370,21.25,74092.0,8.47,-5.35,-2.83,0,*78
1498179766.45,44371,21.25,74090.0,8.47,-5.27,-2.91,0,*79
1498179767.67,44372,21.25,74082.3,8.47,-5.35,-2.83,0,*7A
1498179768.89,44373,21.25,74086.0,8.45,-5.35,-2.71,0,*74
1498179770.13,44374,21.25,74084.8,8.45,-5.27,-2.71,0,*70
1498179771.4,44375,21.25,74084.8,8.47,-5.23,-2.59,0,*7D
1498179772.68,44376,21.25,74084.8,8.47,-5.15,-2.55,0,*77
1498179773.94,44377,21.25,74076.5,8.47,-5.27,-2.55,0,*77
1498179775.21,44378,21.25,74076.0,8.47,-5.27,-2.55,0,*78
1498179776.49,44379,21.25,74070.8,8.47,-5.23,-2.55,0,*7D
1498179777.73,44380,21.25,74064.8,8.47,-5.15,-2.43,0,*79
1498179778.94,44381,21.25,74064.5,8.49,-5.11,-2.31,0,*77
1498179780.16,44382,21.25,74060.8,8.49,-5.07,-2.19,0,*79
1498179781.37,44383,21.25,74056.0,8.49,-5.11,-2.15,0,*73
1498179782.59,44384,21.25,74062.8,8.49,-5.07,-2.15,0,*73
1498179783.81,44385,21.25,74076.3,8.49,-5.07,-2.15,0,*72
1498179785.05,44386,21.25,74074.3,8.51,-5.15,-2.15,0,*7B
1498179786.3,44387,21.25,74072.3,8.51,-5.23,-2.19,0,*73
1498179787.56,44388,21.25,74070.0,8.51,-5.19,-2.07,0,*7A
1498179788.78,44389,21.25,74064.8,8.49,-5.23,-2.15,0,*78
1498179790.05,44390,21.25,74068.5,8.51,-5.07,-2.07,0,*7C
1498179791.32,44391,21.25,74076.5,8.51,-5.15,-2.07,0,*7E
1498179792.59,44392,21.25,74072.8,8.51,-5.19,-2.11,0,*76
1498179793.83,44393,21.25,74072.5,8.49,-5.23,-2.11,0,*77
1498179795.08,44394,21.25,74072.5,8.53,-5.19,-2.11,0,*72
1498179796.34,44395,21.25,74078.5,8.51,-5.19,-2.07,0,*76
1498179797.61,44396,21.25,74076.8,8.51,-5.15,-1.99,0,*7D
1498179798.87,44397,21.25,74076.0,8.51,-5.19,-1.95,0,*7C
1498179800.14,44398,21.25,74080.3,8.51,-5.27,-1.99,0,*72
1498179801.4,44399,21.25,74084.8,8.51,-5.19,-1.95,0,*72
1498179802.66,44400,21.25,74084.0,8.51,-5.15,-1.87,0,*7A
1498179803.93,44401,21.25,74088.8,8.51,-5.15,-1.83,0,*7F
1498179805.18,44402,21.25,74086.8,8.49,-5.23,-1.87,0,*74
1498179806.44,44403,21.25,74086.3,8.51,-5.27,-1.83,0,*7C
1498179807.68,44404,21.25,74086.5,8.51,-5.19,-1.75,0,*7F
1498179808.92,44405,21.25,74082.8,8.51,-5.19,-1.75,0,*7E
1498179810.14,44406,21.25,74080.3,8.53,-5.19,-1.71,0,*7B
1498179811.36,44407,21.25,74084.8,8.53,-5.27,-1.75,0,*73
1498179812.58,44408,21.25,74084.5,8.53,-5.19,-1.71,0,*75
1498179813.8,44409,21.25,74084.8,8.53,-5.15,-1.59,0,*72
1498179815.02,44410,21.25,74080.5,8.53,-5.07,-1.59,0,*79
1498179816.24,44411,21.25,74084.3,8.53,-5.07,-1.51,0,*70
1498179817.49,44412,21.25,74084.8,8.53,-5.07,-1.47,0,*74
1498179818.74,44413,21.25,74084.3,8.53,-5.03,-1.47,0,*71
1498179819.97,44414,21.25,74086.5,8.55,-4.89,-1.33,0,*70
1498179821.21,44415,21.25,74084.0,8.53,-4.93,-1.35,0,*7A
1498179822.44,44416,21.25,74086.3,8.53,-4.93,-1.39,0,*75
1498179823.65,44417,21.25,74084.5,8.53,-4.93,-1.29,0,*75
1498179824.86,44418,21.25,74084.5,8.53,-4.81,-1.29,0,*79
1498179826.08,44419,21.25,74082.5,8.53,-4.81,-1.21,0,*70
1498179827.3,44420,21.25,74082.3,8.53,-4.81,-1.21,0,*7A
1498179828.51,44421,21.19,74078.8,8.53,-4.77,-1.21,0,*72
1498179829.72,44422,21.25,74086.5,8.53,-4.69,-1.21,0,*7E
1498179830.93,44423,21.25,74080.0,8.53,-4.65,-1.09,0,*79
1498179832.15,44424,21.25,74084.5,8.53,-4.65,-1.01,0,*76
1498179833.37,44425,21.25,74086.5,8.53,-4.57,-1.01,0,*76
1498179834.58,44426,21.25,74086.0,8.53,-4.53,-1.01,0,*71
1498179835.78,44427,21.25,74084.5,8.53,-4.49,-0.89,0,*4A
1498179837.02,44428,21.25,74084.0,8.55,-4.33,-0.85,0,*42
1498179838.23,44429,21.25,74084.0,8.53,-4.29,-0.89,0,*42
1498179839.42,44430,21.25,74080.5,8.53,-4.25,-0.77,0,*47
1498179840.63,44431,21.25,74078.8,8.53,-4.25,-0.85,0,*4B
1498179841.84,44432,21.25,74076.5,8.55,-4.13,-0.81,0,*4F
1498179843.05,44433,21.25,74082.3,8.55,-4.09,-0.69,0,*43
1498179844.29,44434,21.25,74080.3,8.55,-4.01,-0.65,0,*40
1498179845.5,44435,21.25,74076.3,8.55,-3.95,-0.61,0,*4F
1498179846.71,44436,21.19,74074.5,8.55,-3.95,-0.61,0,*4C
1498179847.93,44437,21.25,74078.8,8.55,-3.83,-0.57,0,*4F
1498179849.15,44438,21.25,74076.3,8.55,-3.83,-0.57,0,*40
1498179850.34,44439,21.25,74078.5,8.53,-3.79,-0.53,0,*46
1498179851.56,44440,21.25,74082.5,8.53,-3.63,-0.53,0,*43
1498179852.78,44441,21.25,74076.3,8.53,-3.63,-0.45,0,*45
1498179854.0,44442,21.25,74080.5,8.53,-3.59,-0.37,0,*4A
1498179855.21,44443,21.25,74080.5,8.53,-3.39,-0.27,0,*4C
1498179856.41,44444,21.25,74074.8,8.53,-3.35,-0.33,0,*42
1498179857.64,44445,21.25,74080.3,8.55,-3.23,-0.23,0,*43
1498179858.87,44446,21.25,74084.5,8.55,-3.19,-0.23,0,*49
1498179860.09,44447,21.25,74074.5,8.53,-3.15,-0.23,0,*42
1498179861.3,44448,21.25,74074.3,8.55,-3.11,-0.19,0,*46
1498179862.51,44449,21.25,74080.3,8.55,-3.03,-0.19,0,*44
1498179863.73,44450,21.25,74074.0,8.55,-2.87,-0.11,0,*49
1498179864.95,44451,21.25,74074.8,8.55,-2.95,-0.11,0,*4B
1498179866.16,44452,21.25,74068.0,8.55,-2.87,-0.19,0,*43
1498179867.37,44453,21.25,74062.8,8.55,-2.83,-0.19,0,*46
1498179868.58,44454,21.25,74060.8,8.55,-2.79,-0.11,0,*4C
1498179869.81,44455,21.25,74064.3,8.55,-2.71,-0.07,0,*72
1498179871.05,44456,21.25,74068.5,8.55,-2.71,-0.19,0,*4E
1498179872.26,44457,21.25,74072.5,8.57,-2.67,-0.11,0,*42
1498179873.5,44458,21.25,74074.8,8.59,-2.63,-0.07,0,*70
1498179874.71,44459,21.25,74072.8,8.57,-2.67,-0.11,0,*4C
1498179875.95,44460,21.25,74070.3,8.59,-2.55,-0.07,0,*7E
1498179877.16,44461,21.25,74072.5,8.57,-2.55,-0.11,0,*46
1498179878.41,44462,21.25,74070.8,8.59,-2.51,-0.15,0,*4B
1498179879.62,44463,21.25,74072.0,8.57,-2.47,-0.19,0,*4F
1498179880.84,44464,21.25,74076.5,8.57,-2.47,-0.19,0,*48
1498179882.05,44465,21.25,74082.8,8.59,-2.43,-0.19,0,*43
1498179883.26,44466,21.25,74086.5,8.57,-2.47,-0.29,0,*49
1498179884.49,44467,21.25,74080.5,8.59,-2.43,-0.27,0,*4C
1498179885.7,44468,21.25,74082.3,8.57,-2.43,-0.23,0,*49
1498179886.94,44469,21.25,74084.0,8.59,-2.31,-0.27,0,*47
1498179888.15,44470,21.25,74082.5,8.59,-2.27,-0.19,0,*45
1498179889.36,44471,21.19,74082.8,8.59,-2.31,-0.19,0,*43
1498179890.55,44472,21.25,74084.5,8.57,-2.31,-0.19,0,*4E
1498179891.76,44473,21.25,74084.0,8.59,-2.27,-0.19,0,*46
1498179892.97,44474,21.19,74086.5,8.59,-2.19,-0.19,0,*4C
1498179894.16,44475,21.25,74086.3,8.57,-2.31,-0.29,0,*4A
1498179895.34,44476,21.25,74084.8,8.57,-2.31,-0.29,0,*49
1498179896.55,44477,21.25,74090.3,8.57,-2.23,-0.23,0,*41
1498179897.74,44478,21.25,74086.8,8.57,-2.23,-0.11,0,*4F
1498179898.98,44479,21.25,74084.5,8.57,-2.11,-0.23,0,*4E
1498179900.22,44480,21.25,74082.5,8.59,-2.07,-0.19,0,*48
1498179901.43,44481,21.25,74082.0,8.59,-2.15,-0.15,0,*46
1498179902.67,44482,21.25,74084.8,8.59,-2.07,-0.15,0,*46
1498179903.92,44483,21.25,74082.5,8.59,-2.07,-0.19,0,*4B
1498179905.13,44484,21.25,74086.3,8.57,-2.11,-0.19,0,*45
1498179906.35,44485,21.25,74080.0,8.57,-2.07,-0.19,0,*43
1498179907.59,44486,21.25,74084.0,8.59,-2.03,-0.19,0,*4A
1498179908.83,44487,21.25,74082.8,8.59,-1.99,-0.07,0,*74
1498179910.06,44488,21.25,74082.5,8.59,-1.91,-0.07,0,*73
1498179911.27,44489,21.25,74078.8,8.57,-1.95,-0.11,0,*4F
1498179912.49,44490,21.25,74086.0,8.57,-1.91,-0.11,0,*43
1498179913.73,44491,21.25,74082.3,8.59,-1.91,-0.15,0,*48
1498179914.94,44492,21.25,74076.5,8.57,-1.95,-0.11,0,*45
1498179916.16,44493,21.25,74078.5,8.57,-1.83,-0.11,0,*43
1498179917.36,44494,21.25,74078.3,8.57,-1.91,-0.07,0,*70
1498179918.57,44495,21.19,74074.3,8.59,-1.79,0.05,0,*56
1498179919.77,44496,21.25,74076.5,8.59,-1.79,-0.03,0,*7E
1498179920.98,44497,21.25,74072.3,8.57,-1.91,-0.07,0,*73
1498179922.18,44498,21.25,74072.3,8.57,-1.83,0.01,0,*54
1498179923.39,44499,21.25,74074.3,8.59,-1.79,0.09,0,*56
1498179924.59,44500,21.25,74076.8,8.57,-1.83,0.05,0,*50
1498179925.8,44501,21.19,74076.0,8.59,-1.79,-0.03,0,*71
1498179927.0,44502,21.25,74080.0,8.57,-1.71,0.13,0,*68
1498179928.18,44503,21.25,74082.0,8.57,-1.79,0.05,0,*56
1498179929.41,44504,21.25,74076.5,8.59,-1.67,0.17,0,*63
1498179930.6,44505,21.25,74080.8,8.57,-1.59,0.17,0,*61
1498179931.8,44506,21.25,74080.3,8.57,-1.59,0.17,0,*62
1498179933.0,44507,21.19,74076.5,8.57,-1.55,0.25,0,*6E
1498179934.2,44508,21.25,74082.8,8.57,-1.55,0.25,0,*61
1498179935.43,44509,21.25,74082.8,8.57,-1.47,0.25,0,*63
1498179936.66,44510,21.25,74082.3,8.57,-1.47,0.37,0,*68
1498179937.89,44511,21.19,74082.5,8.57,-1.35,0.29,0,*63
1498179939.11,44512,21.25,74086.5,8.57,-1.35,0.37,0,*6F
1498179940.3,44513,21.19,74084.0,8.57,-1.25,0.43,0,*6C
1498179941.48,44514,21.19,74084.0,8.57,-1.25,0.43,0,*6B
1498179942.66,44515,21.25,74080.8,8.57,-1.17,0.43,0,*6B
1498179943.92,44516,21.19,74074.3,8.59,-1.13,0.55,0,*65
1498179945.14,44517,21.25,74070.8,8.57,-1.17,0.55,0,*6E
1498179946.37,44518,21.25,74076.3,8.57,-1.13,0.55,0,*65
1498179947.6,44519,21.19,74074.5,8.57,-1.05,0.51,0,*67
1498179948.84,44520,21.19,74072.8,8.57,-1.05,0.55,0,*69
1498179950.06,44521,21.25,74074.0,8.57,-0.93,0.63,0,*53
1498179951.28,44522,21.19,74070.0,8.57,-0.97,0.67,0,*50
1498179952.53,44523,21.19,74066.8,8.59,-0.89,0.71,0,*57
1498179953.75,44524,21.25,74066.3,8.57,-0.93,0.67,0,*52
1498179954.98,44525,21.25,74062.8,8.59,-0.77,0.83,0,*5D
1498179956.21,44526,21.19,74060.3,8.59,-0.65,0.83,0,*5D
1498179957.41,44527,21.25,74066.3,8.57,-0.73,0.75,0,*5C
1498179958.64,44528,21.25,74076.3,8.63,-0.65,0.83,0,*5A
1498179959.84,44529,21.19,74076.0,8.57,-0.73,0.79,0,*5E
1498179961.07,44530,21.19,74072.0,8.59,-0.65,0.83,0,*5A
1498179962.29,44531,21.25,74072.8,8.59,-0.57,0.83,0,*5A
1498179963.49,44532,21.25,74072.8,8.57,-0.61,0.79,0,*57
1498179964.71,44533,21.19,74072.5,8.59,-0.53,0.83,0,*5C
1498179965.94,44534,21.25,74072.0,8.59,-0.57,0.83,0,*5F
1498179967.17,44535,21.19,74074.5,8.59,-0.57,0.79,0,*5B
1498179968.39,44536,21.19,74078.5,8.59,-0.65,0.79,0,*59
1498179969.61,44537,21.25,74082.5,8.59,-0.57,0.79,0,*59
1498179970.84,44538,21.25,74076.5,8.59,-0.53,0.83,0,*57
1498179972.07,44539,21.19,74076.8,8.59,-0.53,0.83,0,*56
1498179973.27,44540,21.25,74076.8,8.57,-0.57,0.75,0,*5B
1498179974.5,44541,21.25,74076.0,8.59,-0.41,0.83,0,*5A
1498179975.72,44542,21.25,74078.5,8.59,-0.45,0.83,0,*5D
1498179976.93,44543,21.25,74078.3,8.57,-0.45,0.75,0,*5B
1498179978.16,44544,21.25,74080.3,8.59,-0.41,0.83,0,*5F
1498179979.39,44545,21.19,74076.8,8.59,-0.41,0.83,0,*5E
1498179980.61,44546,21.19,74074.0,8.59,-0.41,0.79,0,*58
1498179981.84,44547,21.25,74076.8,8.59,-0.37,0.83,0,*5D
1498179983.06,44548,21.25,74080.5,8.59,-0.29,0.83,0,*5D
1498179984.28,44549,21.19,74076.3,8.59,-0.29,0.83,0,*5C
1498179985.51,44550,21.25,74080.5,8.59,-0.37,0.83,0,*5B
1498179986.71,44551,21.25,74082.8,8.57,-0.33,0.75,0,*59
1498179987.94,44552,21.19,74078.0,8.59,-0.29,0.91,0,*55
1498179989.16,44553,21.25,74078.0,8.59,-0.19,0.95,0,*53
1498179990.41,44554,21.25,74078.8,8.59,-0.27,0.91,0,*5D
1498179991.67,44555,21.19,74076.3,8.59,-0.27,0.91,0,*5C
1498179992.9,44556,21.19,74074.0,8.59,-0.19,0.91,0,*52
1498179994.14,44557,21.25,74078.5,8.59,-0.27,0.95,0,*5A
1498179995.34,44558,21.19,74072.3,8.57,-0.19,0.95,0,*56
1498179996.57,44559,21.19,74074.8,8.59,-0.19,0.91,0,*5D
1498179997.8,44560,21.25,74076.3,8.59,-0.15,0.91,0,*5B
1498179999.03,44561,21.19,74080.0,8.59,-0.03,0.91,0,*6D
1498180000.25,44562,21.19,74078.3,8.59,-0.07,0.91,0,*6A
1498180001.46,44563,21.25,74084.0,8.59,-0.07,0.95,0,*6F
1498180002.68,44564,21.19,74086.3,8.59,-0.03,0.95,0,*6C
1498180003.89,44565,21.19,74082.0,8.59,0.05,0.95,0,*46
1498180005.11,44566,21.19,74080.0,8.59,-0.03,0.95,0,*6E
1498180006.32,44567,21.19,74086.3,8.59,0.05,0.95,0,*44
1498180007.53,44568,21.19,74084.0,8.59,0.17,1.01,0,*44
1498180008.72,44569,21.19,74084.3,8.59,0.05,1.01,0,*76
1498180009.92,44570,21.25,74090.8,8.59,0.05,1.01,0,*7E
1498180011.13,44571,21.25,74088.3,8.59,0.17,1.01,0,*4C
1498180012.35,44572,21.19,74088.8,8.59,0.21,1.01,0,*4A
1498180013.56,44573,21.19,74084.0,8.59,0.17,1.01,0,*4E
1498180014.78,44574,21.25,74082.5,8.59,0.17,1.05,0,*4D
1498180016.0,44575,21.25,74080.5,8.59,0.21,1.05,0,*49
1498180017.22,44576,21.25,74076.0,8.59,0.21,1.05,0,*4A
1498180018.46,44577,21.19,74078.5,8.63,0.25,1.09,0,*4A
1498180019.68,44578,21.19,74078.0,8.63,0.25,1.05,0,*49
1498180020.93,44579,21.19,74076.0,8.63,0.25,1.09,0,*44
1498180022.15,44580,21.19,74076.0,8.65,0.33,1.09,0,*43
1498180023.39,44581,21.19,74070.3,8.63,0.33,1.17,0,*4B
1498180024.6,44582,21.25,74072.8,8.59,0.29,1.05,0,*49
1498180025.82,44583,21.25,74070.0,8.59,0.33,1.05,0,*43
1498180027.06,44584,21.19,74068.3,8.63,0.37,1.09,0,*45
1498180028.31,44585,21.19,74068.5,8.63,0.37,1.09,0,*44
1498180029.55,44586,21.19,74074.8,8.63,0.37,1.09,0,*47
1498180030.79,44587,21.19,74074.0,8.63,0.37,1.09,0,*46
1498180032.01,44588,21.25,74074.5,8.63,0.37,1.05,0,*45
1498180033.2,44589,21.25,74080.8,8.65,0.43,1.17,0,*42
1498180034.42,44590,21.19,74074.3,8.65,0.37,1.17,0,*49
1498180035.63,44591,21.19,74072.8,8.63,0.43,1.17,0,*4D
1498180036.85,44592,21.25,74072.3,8.63,0.43,1.17,0,*4E
1498180038.04,44593,21.19,74072.3,8.65,0.43,1.17,0,*49
1498180039.28,44594,21.19,74074.5,8.63,0.37,1.17,0,*4B
1498180040.52,44595,21.19,74070.5,8.63,0.37,1.17,0,*4A
1498180041.73,44596,21.25,74076.3,8.63,0.43,1.17,0,*4A
1498180042.98,44597,21.19,74082.8,8.63,0.47,1.17,0,*4F
1498180044.23,44598,21.19,74078.8,8.63,0.47,1.17,0,*40
1498180045.45,44599,21.19,74080.0,8.65,0.51,1.17,0,*40
1498180046.67,44600,21.19,74078.0,8.65,0.47,1.09,0,*4B
1498180047.92,44601,21.19,74076.5,8.63,0.47,1.09,0,*4C
1498180049.17,44602,21.19,74078.8,8.63,0.47,1.17,0,*40
1498180050.42,44603,21.19,74074.0,8.63,0.47,1.09,0,*4E
1498180051.61,44604,21.19,74080.0,8.65,0.47,1.05,0,*43
1498180052.86,44605,21.19,74082.5,8.63,0.47,1.09,0,*48
1498180054.09,44606,21.19,74086.5,8.65,0.47,1.09,0,*4D
1498180055.31,44607,21.19,74086.5,8.65,0.51,1.09,0,*4B
1498180056.56,44608,21.19,74086.5,8.63,0.47,1.09,0,*45
1498180057.81,44609,21.19,74080.0,8.63,0.51,1.09,0,*43
1498180059.03,44610,21.19,74082.8,8.65,0.51,1.17,0,*42
1498180060.28,44611,21.19,74074.3,8.63,0.47,1.09,0,*4D
1498180061.53,44612,21.25,74076.0,8.63,0.51,1.09,0,*49
1498180062.73,44613,21.19,74072.8,8.65,0.51,1.05,0,*42
1498180063.95,44614,21.25,74056.3,8.65,0.59,1.09,0,*41
1498180065.16,44615,21.25,74058.0,8.63,0.59,1.05,0,*4A
1498180066.38,44616,21.19,74060.3,8.63,0.47,1.05,0,*46
1498180067.61,44617,21.19,74068.0,8.65,0.59,1.09,0,*42
1498180068.85,44618,21.19,74074.8,8.63,0.59,1.17,0,*44
1498180070.09,44619,21.19,74066.8,8.63,0.59,1.17,0,*45
1498180071.32,44620,21.19,74070.5,8.65,0.63,1.09,0,*4F
1498180072.54,44621,21.19,74070.8,8.65,0.63,1.17,0,*41
1498180073.76,44622,21.25,74070.0,8.65,0.63,1.09,0,*4D
1498180074.98,44623,21.25,74066.0,8.65,0.63,1.17,0,*43
1498180076.22,44624,21.19,74058.5,8.63,0.63,1.17,0,*42
1498180077.47,44625,21.19,74058.5,8.63,0.71,1.09,0,*4F
1498180078.69,44626,21.19,74062.0,8.65,0.63,1.17,0,*46
1498180079.91,44627,21.19,74066.5,8.65,0.71,1.17,0,*44
1498180081.13,44628,21.19,74070.0,8.65,0.71,1.21,0,*4E
1498180082.38,44629,21.19,74074.5,8.63,0.75,1.17,0,*48
1498180083.6,44630,21.25,74074.0,8.65,0.71,1.21,0,*47
1498180084.83,44631,21.19,74070.8,8.65,0.75,1.21,0,*42
1498180086.05,44632,21.19,74072.0,8.65,0.71,1.17,0,*40
1498180087.27,44633,21.19,74074.8,8.65,0.71,1.17,0,*41
1498180088.49,44634,21.19,74074.5,8.65,0.71,1.17,0,*46
1498180089.72,44635,21.19,74074.8,8.65,0.71,1.09,0,*48
1498180090.96,44636,21.19,74076.8,8.63,0.75,1.17,0,*46
1498180092.18,44637,21.19,74076.3,8.65,0.75,1.09,0,*4E
1498180093.4,44638,21.19,74068.5,8.65,0.75,1.17,0,*4E
1498180094.65,44639,21.19,74082.3,8.63,0.71,1.17,0,*4D
1498180095.87,44640,21.19,74078.5,8.65,0.75,1.17,0,*41
1498180097.09,44641,21.19,74076.0,8.65,0.83,1.17,0,*49
1498180098.31,44642,21.19,74078.3,8.65,0.75,1.21,0,*46
1498180099.54,44643,21.19,74078.5,8.65,0.75,1.21,0,*47
1498180100.76,44644,21.19,74080.0,8.65,0.87,1.17,0,*48
1498180101.99,44645,21.19,74080.5,8.65,0.87,1.25,0,*48
1498180103.24,44646,21.19,74080.5,8.67,0.91,1.29,0,*42
1498180104.47,44647,21.19,74086.5,8.65,0.87,1.25,0,*4A
1498180105.7,44648,21.19,74082.5,8.65,0.87,1.33,0,*42
1498180106.9,44649,21.19,74084.0,8.65,0.97,1.33,0,*42
1498180108.11,44650,21.19,74082.0,8.65,0.97,1.33,0,*4A
1498180109.32,44651,21.19,74078.5,8.65,0.97,1.33,0,*4B
1498180110.52,44652,21.19,74078.0,8.65,0.97,1.33,0,*48
1498180111.75,44653,21.19,74080.0,8.65,1.09,1.43,0,*78
1498180112.98,44654,21.19,74084.8,8.63,0.97,1.37,0,*4C
1498180114.22,44655,21.19,74078.3,8.65,1.09,1.37,0,*7D
1498180115.43,44656,21.19,74078.8,8.65,1.05,1.37,0,*72
1498180116.66,44657,21.19,74076.5,8.67,0.97,1.29,0,*44
1498180117.88,44658,21.19,74076.3,8.67,0.97,1.29,0,*4B
1498180119.11,44659,21.19,74070.5,8.67,1.01,1.37,0,*7B
1498180120.34,44660,21.19,74070.0,8.67,0.97,1.29,0,*40
1498180121.57,44661,21.19,74068.3,8.67,0.97,1.37,0,*4E